User: anonymous   Login
Location: Ayer Observatory
(42.2600°N, 71.0700°W)
Time: 05:20:17
(UTC-04:00)
Language:

FO-29 - Orbit

View from above orbital plane
View from above orbital plane
View from above satellite
View from above satellite

Ground track
Ground track

The orbit data is extracted from the following two-line orbital elements,

1 24278U 96046B   19198.83233514 -.00000049 +00000-0 -15191-4 0  9991
2 24278 098.5411 348.2936 0350703 164.2927 196.9430 13.53092552131492
Epoch (UTC): 17 July 2019 19:58:33
Eccentricity: 0.0350703
inclination: 98.5411°
perigee height: 800 km
apogee height: 1322 km
right ascension of ascending node: 348.2936°
argument of perigee: 164.2927°
revolutions per day: 13.53092552
mean anomaly at epoch: 196.9430°
orbit number at epoch: 13149

The dashed part of the orbit path shows where the satellite is in the earth's shadow,  

DLR